Location: Mentone
(34.5413°N, 85.5351°W)
Time: 13:19:32
(UTC-05:00)

Uosat F - Visible Passes

Search period start: 23 March 2017 00:00
Search period end: 02 April 2017 00:00
Orbit: 751 x 761 km, 98.8° (Epoch: 21 March)

Date Brightness Start Highest point End Pass type
(mag) Time Alt. Az. Time Alt. Az. Time Alt. Az.
23 Mar 13.2 19:18:30 10° SSW 19:23:00 32° W 19:27:31 10° NW visible
25 Mar 14.0 19:39:13 10° SW 19:42:56 21° W 19:46:40 10° NW visible
26 Mar 14.3 06:11:58 10° ENE 06:14:47 15° E 06:17:34 10° SE visible
27 Mar 14.3 20:00:47 10° WSW 20:02:56 13° W 20:05:06 10° WNW visible
28 Mar 13.2 19:18:41 10° SSW 19:23:11 33° W 19:27:44 10° NW visible
30 Mar 13.9 19:39:23 10° SW 19:43:08 21° W 19:46:54 10° NW visible
01 Apr 14.3 20:00:55 10° WSW 20:03:08 13° W 20:05:21 10° WNW visible
